Regional Weather Roundup
Issued by NWS Little Rock, AR

Home | Current Version | Previous Version | Graphics & Text | Print | Product List | Glossary On
Versions: 1 2 3 4 5 6 7 8 9 10 11 12 13 14 15 16 17 18 19 20 21 22 23 24 25 26 27 28 29 30 31 32 33 34 35 36 37 38 39 40 41 42 43 44 45 46 47 48 49 50
000
ASUS44 KLZK 040205
RWRLZK

WEATHER ROUNDUP FOR ARKANSAS
NATIONAL WEATHER SERVICE LITTLE ROCK AR
900 PM CDT MON AUG 03 2015

NOTE: "FAIR" INDICATES FEW OR NO CLOUDS BELOW 12,000 FEET WITH NO
SIGNIFICANT WEATHER AND/OR OBSTRUCTIONS TO VISIBILITY.

ARZ001-003-010-029-040300-
NORTHWEST ARKANSAS

CITY           SKY/WX    TMP DP  RH WIND       PRES   REMARKS
FAYETTEVILLE   CLEAR     76  75  97 CALM      29.97S
FORT SMITH     CLOUDY    85  71  63 E3        29.90S HX  90
HARRISON       PTCLDY    79  68  69 W3        29.98R
BENTONVILLE    PTCLDY    81  66  61 CALM      29.97F
ROGERS         PTCLDY    80  69  69 CALM      29.98S
SILOAM SPGS    CLEAR     77  64  65 E3        29.95S
HIGHFILL       PTCLDY    79  72  79 CALM      29.96S
SPRINGDALE     PTCLDY    79  70  73 E3        29.99S
$$

ARZ004-005-016-040300-
NORTH CENTRAL ARKANSAS

CITY           SKY/WX    TMP DP  RH WIND       PRES   REMARKS
BATESVILLE     MOCLDY    81  73  78 CALM      29.93R HX  85
FLIPPIN        MOCLDY    82  70  65 CALM      29.93R HX  86
MTN HOME       MOCLDY    78  72  81 CALM      29.94R
$$

ARZ040-041-040300-
WEST CENTRAL ARKANSAS

CITY           SKY/WX    TMP DP  RH WIND       PRES   REMARKS
MENA           MOCLDY    82  68  61 CALM      29.95R HX  85
MOUNT IDA      PTCLDY    81  66  60 CALM      29.92S
$$

ARZ009-017-025-026-028-040300-
NORTHEAST ARKANSAS

CITY           SKY/WX    TMP DP  RH WIND       PRES   REMARKS
JONESBORO      MOCLDY    79  73  82 CALM      29.91R
NEWPORT        MOCLDY    83  74  74 S6        29.92R HX  89
WALNUT RIDGE   MOCLDY    84  70  61 SW3       29.90S HX  88
BLYTHEVILLE    PTCLDY    84  76  76 SW5       29.91R HX  93
$$

ARZ022-023-033-042-044-040300-
CENTRAL ARKANSAS

CITY           SKY/WX    TMP DP  RH WIND       PRES   REMARKS
LITTLE ROCK    MOCLDY    85  69  58 S3        29.91S HX  89
N LITTLE ROCK  MOCLDY    86  68  54 S3        29.91S HX  89
SEARCY         CLOUDY    80  73  79 CALM      29.93R
HOT SPRINGS    PTCLDY    84  64  50 E5        29.92S HX  85
RUSSELLVILLE   CLOUDY    79  73  82 CALM      29.91R
$$

ARZ036-040300-
EAST ARKANSAS

CITY           SKY/WX    TMP DP  RH WIND       PRES   REMARKS
WEST MEMPHIS   MOCLDY    83  74  74 SW5       29.91R HX  89
$$

ARZ050-053-066-070-073-040300-
SOUTHWEST ARKANSAS

CITY           SKY/WX    TMP DP  RH WIND       PRES   REMARKS
ARKADELPHIA    FAIR      78  73  84 CALM      29.91R
CAMDEN         CLEAR     81  70  69 CALM      29.89S
TEXARKANA      CLEAR     85  64  49 SE5       29.90S HX  86
EL DORADO      HAZE      82  67  60 CALM      29.90S VSB 3/4
DE QUEEN       PTCLDY    79  72  79 CALM      29.88S
$$

ARZ056-057-069-040300-
SOUTHEAST ARKANSAS

CITY           SKY/WX    TMP DP  RH WIND       PRES   REMARKS
PINE BLUFF     PTCLDY    81  70  69 CALM      29.91S
STUTTGART      MOCLDY    90  68  48 S6        29.92S HX  93
MONTICELLO     CLEAR     80  73  79 CALM      29.91S

$$




USA.gov is the U.S. government's official web portal to all federal, state and local government web resources and services.